Weather History for NW Arkansas Airport, AR

Change the Weather History Date:

Saturday, February 16, 2013

  Actual Average Record
Temperature  
Mean Temperature 30 °F -  
Max Temperature 36 °F - - ()
Min Temperature 24 °F - - ()
Degree Days  
Heating Degree Days 35    
Moisture  
Dew Point 21 °F    
Average Humidity 74    
Maximum Humidity 100    
Minimum Humidity 48    
Precipitation  
Precipitation 0.00 in - - ()
Sea Level Pressure  
Sea Level Pressure 30.27 in    
Wind  
Wind Speed 8 mph (West)    
Max Wind Speed 15 mph    
Max Gust Speed 21 mph    
Visibility 9 miles    
Events Snow    
T = Trace of Precipitation, MM = Missing Value Source: NWS Daily Summary

Daily Weather History Graph

Daily Weather History Graph

Search for Another Location

Airport:

Trip Planner

Search our weather history database for the weather conditions in past years. The results will help you decide how hot, cold, wet, or windy it might be!

Date:

Astronomy

Feb. 16, 2013 Rise Set
Actual Time 7:03 AM CST 5:59 PM CST
Civil Twilight 6:37 AM CST 6:25 PM CST
Nautical Twilight 6:07 AM CST 6:56 PM CST
Astronomical Twilight 5:37 AM CST 7:25 PM CST
Moon 10:29 AM CST (2/16) No Moon Set
Length of Visible Light 11h 48m
Length of Day
10h 56m
Waxing Crescent, 39% of the Moon is Illuminated
Feb 16
Waxing Crescent
Feb 17
First Quarter
Feb 25
Full
Mar 4
Last Quarter
Mar 11
New

Hourly Weather History & Observations

Time (CST) Temp. Windchill Dew Point Humidity Pressure Visibility Wind Dir Wind Speed Gust Speed Precip Events Conditions
12:53 AM 24.1 °F 17.0 °F 17.1 °F 75% 30.29 in 10.0 mi WSW 5.8 mph - N/A   Mostly Cloudy
1:53 AM 28.9 °F 21.1 °F 18.0 °F 64% 30.30 in 10.0 mi West 8.1 mph - N/A   Mostly Cloudy
2:27 AM 28.4 °F 18.5 °F 24.8 °F 86% 30.27 in 2.0 mi WNW 11.5 mph - 0.00 in Snow Light Snow
2:35 AM 28.4 °F 19.7 °F 24.8 °F 86% 30.26 in 1.8 mi WNW 9.2 mph - 0.00 in Snow Light Snow
2:53 AM 27.0 °F 17.3 °F 27.0 °F 100% 30.29 in 1.5 mi WNW 10.4 mph - 0.00 in Snow Light Snow
3:10 AM 26.6 °F 14.7 °F 26.6 °F 100% 30.26 in 1.0 mi West 15.0 mph 20.7 mph 0.00 in Snow Light Snow
3:23 AM 26.6 °F 17.5 °F 24.8 °F 93% 30.25 in 9.0 mi WNW 9.2 mph 18.4 mph 0.00 in   Overcast
3:30 AM 26.6 °F 17.5 °F 24.8 °F 93% 30.25 in 10.0 mi WNW 9.2 mph - 0.00 in   Overcast
3:53 AM 26.1 °F 16.8 °F 25.0 °F 96% 30.27 in 10.0 mi WNW 9.2 mph - 0.00 in   Overcast
4:53 AM 25.0 °F 14.8 °F 23.0 °F 92% 30.29 in 10.0 mi WNW 10.4 mph - N/A   Scattered Clouds
5:46 AM 24.8 °F 12.9 °F 21.2 °F 86% 30.27 in 10.0 mi NW 13.8 mph 19.6 mph N/A   Mostly Cloudy
5:53 AM 24.1 °F 12.0 °F 21.0 °F 88% 30.30 in 10.0 mi NW 13.8 mph - N/A   Mostly Cloudy
6:53 AM 24.1 °F 16.0 °F 21.0 °F 88% 30.32 in 10.0 mi NNW 6.9 mph - N/A   Overcast
7:15 AM 24.8 °F 16.1 °F 21.2 °F 86% 30.28 in 10.0 mi NNW 8.1 mph - N/A   Overcast
7:53 AM 24.1 °F 16.0 °F 21.9 °F 91% 30.33 in 10.0 mi NW 6.9 mph - N/A   Mostly Cloudy
8:53 AM 25.0 °F 15.5 °F 21.9 °F 88% 30.35 in 10.0 mi North 9.2 mph - N/A   Overcast
9:34 AM 26.6 °F 17.5 °F 23.0 °F 86% 30.31 in 10.0 mi NNW 9.2 mph - N/A   Overcast
9:53 AM 28.9 °F 20.4 °F 24.1 °F 82% 30.36 in 10.0 mi NNE 9.2 mph - N/A   Mostly Cloudy
10:53 AM 30.0 °F - 21.9 °F 72% 30.36 in 10.0 mi Calm Calm - N/A   Scattered Clouds
11:03 AM 30.2 °F 23.4 °F 21.2 °F 69% 30.32 in 10.0 mi WNW 6.9 mph - N/A   Mostly Cloudy
11:43 AM 30.2 °F 24.3 °F 21.2 °F 69% 30.31 in 10.0 mi West 5.8 mph - N/A   Partly Cloudy
11:53 AM 30.9 °F - 21.0 °F 67% 30.34 in 10.0 mi Calm Calm - N/A   Scattered Clouds
12:53 PM 34.0 °F 28.0 °F 21.0 °F 59% 30.31 in 10.0 mi Variable 6.9 mph - N/A   Overcast
1:53 PM 35.1 °F 31.0 °F 18.0 °F 50% 30.27 in 10.0 mi West 4.6 mph - N/A   Overcast
2:53 PM 35.1 °F 30.1 °F 18.0 °F 50% 30.24 in 10.0 mi SSW 5.8 mph - N/A   Overcast
3:53 PM 36.0 °F 30.3 °F 18.0 °F 48% 30.22 in 10.0 mi SW 6.9 mph - N/A   Overcast
4:53 PM 35.1 °F 28.6 °F 17.1 °F 48% 30.20 in 10.0 mi South 8.1 mph - N/A   Overcast
5:53 PM 35.1 °F 29.3 °F 18.0 °F 50% 30.20 in 10.0 mi SSW 6.9 mph - N/A   Overcast
6:53 PM 33.1 °F - 17.1 °F 52% 30.20 in 10.0 mi Calm Calm - N/A   Mostly Cloudy
7:53 PM 34.0 °F 31.0 °F 19.0 °F 54% 30.19 in 10.0 mi South 3.5 mph - N/A   Overcast
8:53 PM 34.0 °F 26.6 °F 19.0 °F 54% 30.17 in 10.0 mi South 9.2 mph - N/A   Overcast
9:53 PM 34.0 °F 28.0 °F 19.9 °F 56% 30.17 in 10.0 mi SSE 6.9 mph - N/A   Overcast
10:53 PM 30.9 °F 26.2 °F 19.9 °F 64% 30.15 in 10.0 mi South 4.6 mph - N/A   Mostly Cloudy
11:53 PM 30.0 °F 25.2 °F 21.0 °F 69% 30.14 in 10.0 mi SSE 4.6 mph - N/A   Mostly Cloudy